Regional Weather Roundup
Issued by NWS Jackson, KY

Home | Current Version | Previous Version | Graphics & Text | Print | Product List | Glossary On
Versions: 1 2 3 4 5 6 7 8 9 10 11 12 13 14 15 16 17 18 19 20 21 22 23 24 25 26 27 28 29 30 31 32 33 34 35 36 37 38 39 40 41 42 43 44 45 46 47 48 49 50
000
ASUS43 KJKL 271510
RWRJKL

EAST KENTUCKY HOURLY WEATHER ROUNDUP
NATIONAL WEATHER SERVICE JACKSON KY
1000 AM EST FRI FEB 27 2015

NOTE: "FAIR" INDICATES FEW OR NO CLOUDS BELOW 12,000 FEET WITH
NO SIGNIFICANT WEATHER AND/OR OBSTRUCTIONS TO VISIBILITY.

* THESE REPORTS ARE NOT UNDER NWS QUALITY CONTROL AND MAY NOT
  REPORT WEATHER SUCH AS PRECIPITATION AND FOG.

KYZ079-080-083-085-087-088-110-112-115-119-120-271600
...EASTERN KENTUCKY...

CITY           SKY/WX    TMP DP  RH WIND       PRES   REMARKS
JACKSON        SUNNY     17   5  59 VRB5      30.48R WCI  10
LONDON         SUNNY     18   4  54 N8        30.49S WCI   8
SOMERSET*      SUNNY     18   7  62 NE5       30.55S WCI  11
MONTICELLO*    SUNNY     19   9  65 NE6       30.56R WCI  11
MIDDLESBORO*   CLOUDY    21  12  69 N7        30.48R WCI  12
HAZARD APT*    MOSUNNY   19   9  63 NE3       30.49R
BLACK MTN*       N/A     14  12  92 VRB3        N/A
PIKEVILLE APT* FLURRIES  16   9  73 NW5       30.46R WCI   9
BIG SANDY*     MOSUNNY   17   8  65 N5        30.50R WCI  10
MOREHEAD APT*  SUNNY     18   3  53 N5        30.56R WCI  11
$$

KYZ035-036-041-042-044-050-067-078-099-271600
...CENTRAL KENTUCKY...

CITY           SKY/WX    TMP DP  RH WIND       PRES   REMARKS
MT STERLING*   SUNNY     16   9  73 NE3       30.55S
FLEMING/MASON* MOSUNNY   12   5  73 CALM      30.56R
DANVILLE*      PTSUNNY   14   9  79 N5        30.55R WCI   6
RICHMOND*      MOSUNNY   14   7  73 NE7       30.53S WCI   4
LEXINGTON      SUNNY     15   7  70 N6        30.55R WCI   6
FRANKFORT      SUNNY     15   5  64 CALM      30.56R
$$

KYZ091>093-OHZ055-061-077-WVZ005-015-034-035-042-271600
...SOUTHERN OHIO/WEST VIRGINIA...

CITY           SKY/WX    TMP DP  RH WIND       PRES   REMARKS
COVINGTON      SUNNY     14   1  56 CALM      30.55R
COLUMBUS       FLURRIES  11   6  81 CALM      30.54R
DAYTON         SUNNY      9  -1  64 NW3       30.54R
WILMINGTON     LGT SNOW  13   5  70 SW5       30.52R WCI   5
HUNTINGTON     SUNNY     15   5  64 NW3       30.54R
CHARLESTON     MOSUNNY   16   6  65 W5        30.51R WCI   9
PINEVILLE*     LGT SNOW  22  14  72 MISG      30.44R
BECKLEY        CLOUDY    14   7  73 NW7       30.33R HAZE    WCI   4
BLUEFIELD      CLOUDY    19  10  68 VRB7      30.29R WCI  10
$$

VAZ002-007-008-TNZ017-027-036-066-071-271600
...SOUTHWEST VIRGINIA/EAST TENNESSEE...

CITY           SKY/WX    TMP DP  RH WIND       PRES   REMARKS
WISE*          LGT SNOW  19  12  73 NW5       30.34R WCI  13
JONESVILLE*    MOSUNNY   25  14  63 N5        30.45R WCI  19
ABINGDON*      CLOUDY    26  15  64 NW8       30.35R WCI  17
BRISTOL        FLURRIES  27  18  69 N7        30.40R WCI  19
KNOXVILLE      PTSUNNY   25  15  66 NE8       30.46R WCI  16
OAK RIDGE      MOSUNNY   28  15  58 VRB5      30.48R WCI  23
CROSSVILLE     MOSUNNY   19  10  68 N8        30.42R WCI   9
NASHVILLE      MOSUNNY   25   8  48 NE12G20   30.56R WCI  14
$$

...KEY TO REMARKS...
VSB - VISIBILITY IN MILES
WCI - WIND CHILL INDEX
HX  - HEAT INDEX

$$



USA.gov is the U.S. government's official web portal to all federal, state and local government web resources and services.